This demonstration page uses our WeatherBlox Daily Observations layout. Learn more.

Left ArrowRight Arrow

Hourly Observations for September 30, 2022

Temp ( °F °C ) Dew Point ( °F °C ) Humidity (%) Winds ( mph kmh ) Pressure ( in mb ) Visibility ( mi km ) Precip ( " mm )
12:53 am 00:53 Clear 62 16.7 44 6.7 52 52 NE 10 17 30.03 1017 10 16 0.00 0.00
1:53 am 01:53 Clear 62 16.7 44 6.7 52 52 NE 15 24 30.01 1016 10 16 0.00 0.00
2:53 am 02:53 Cloudy 62 16.7 44 6.7 52 52 ENE 16 26 29.99 1016 10 16 0.00 0.00
3:53 am 03:53 Cloudy 61 16.1 43 6.1 51 51 NE 12 19 29.98 1015 10 16 0.00 0.00
4:53 am 04:53 Cloudy 62 16.7 43 6.1 50 50 NE 14 22 29.97 1015 10 16 0.00 0.00
5:53 am 05:53 Cloudy 61 16.1 43 6.1 51 51 NE 14 22 29.98 1015 10 16 0.00 0.00
6:53 am 06:53 Cloudy 60 15.6 43 6.1 53 53 NNE 7 11 29.98 1015 10 16 0.00 0.00
7:53 am 07:53 Mostly Cloudy 59 15 43 6.1 55 55 N 8 13 29.99 1016 10 16 0.00 0.00
8:53 am 08:53 Cloudy 61 16.1 42 5.6 50 50 N 6 9 29.98 1015 10 16 0.00 0.00
9:53 am 09:53 Cloudy 64 17.8 44 6.7 48 48 NNW 6 9 29.98 1015 10 16 0.00 0.00
10:53 am 10:53 Mostly Cloudy 69 20.6 49 9.4 49 49 NNE 8 13 29.96 1015 10 16 0.00 0.00
11:53 am 11:53 Mostly Cloudy 73 22.8 51 10.6 46 46 ENE 12 19 29.94 1014 10 16 0.00 0.00
12:53 pm 12:53 Cloudy 73 22.8 52 11.1 48 48 NE 10 17 29.93 1014 10 16 0.00 0.00
1:53 pm 13:53 Cloudy 72 22.2 54 12.2 53 53 ENE 12 19 29.91 1013 10 16 0.00 0.00
2:53 pm 14:53 Partly Cloudy 75 23.9 55 12.8 50 50 ENE 9 15 29.87 1012 10 16 0.00 0.00
3:53 pm 15:53 Mostly Cloudy 77 25 54 12.2 45 45 VRB 7 11 29.85 1011 10 16 0.00 0.00
4:53 pm 16:53 Mostly Sunny 78 25.6 51 10.6 39 39 WNW 13 20 29.82 1010 10 16 0.00 0.00
5:53 pm 17:53 Sunny 76 24.4 51 10.6 42 42 NNW 12 19 29.83 1010 10 16 0.00 0.00
6:53 pm 18:53 Sunny 74 23.3 49 9.4 41 41 NW 12 19 29.81 1010 10 16 0.00 0.00
7:53 pm 19:53 Clear 70 21.1 49 9.4 47 47 WNW 7 11 29.82 1010 10 16 0.00 0.00
8:53 pm 20:53 Clear 68 20 45 7.2 43 43 NW 5 7 29.83 1010 10 16 0.00 0.00
9:53 pm 21:53 Clear 66 18.9 42 5.6 42 42 NW 6 9 29.82 1010 10 16 0.00 0.00
10:53 pm 22:53 Clear 64 17.8 42 5.6 45 45 Calm 29.81 1010 10 16 0.00 0.00
11:53 pm 23:53 Clear 62 16.7 42 5.6 48 48 NW 7 11 29.81 1010 10 16 0.00 0.00

Powered by AerisWeather